Ardmore, OK

7:27 AM CDT on May 28, 2017 (GMT -0500)
Ardmore Municipal

Weather History for KADM - January, 2014

Change the Weather History Date:

Wednesday, January 1, 2014

  Actual Average Record
Temperature  
Mean Temperature 46 °F -  
Max Temperature 66 °F 51 °F 78 °F (2006)
Min Temperature 26 °F 33 °F 19 °F (2001)
Degree Days  
Heating Degree Days 18    
Moisture  
Dew Point 30 °F    
Average Humidity 72    
Maximum Humidity 93    
Minimum Humidity 40    
Precipitation  
Precipitation 0.00 in - - ()
Sea Level Pressure  
Sea Level Pressure 30.07 in    
Wind  
Wind Speed 8 mph (ESE)    
Max Wind Speed 26 mph    
Max Gust Speed 34 mph    
Visibility 10 miles    
Events      
Averages and records for this station are not official NWS values.
T = Trace of Precipitation, MM = Missing Value Source: NWS Daily Summary

Daily Weather History Graph

Daily Weather History Graph

Search for Another Location

Airport or City:

Trip Planner

Search our weather history database for the weather conditions in past years. The results will help you decide how hot, cold, wet, or windy it might be!

Date:

Astronomy

Jan. 01, 2014 Rise Set
Actual Time 7:34 AM CST 5:29 PM CST
Civil Twilight 7:06 AM CST 5:57 PM CST
Nautical Twilight 6:35 AM CST 6:28 PM CST
Astronomical Twilight 6:04 AM CST 6:58 PM CST
Moon 7:28 AM CST (1/1) 6:12 PM CST (1/1)
Length of Visible Light 10h 50m
Length of Day
9h 54m
New Moon, 0% of the Moon is Illuminated
Jan 1
New Moon
Jan 7
First Quarter
Jan 15
Full
Jan 23
Last Quarter
Jan 30
New

Hourly Weather History & Observations

Time (CST) Temp. Windchill Dew Point Humidity Pressure Visibility Wind Dir Wind Speed Gust Speed Precip Events Conditions
12:15 AM 36.1 °F 32.3 °F 28.2 °F 73% 30.17 in 10.0 mi East 4.6 mph - N/A   Clear
12:35 AM 35.4 °F 30.5 °F 27.9 °F 74% 30.16 in 10.0 mi ESE 5.8 mph - N/A   Clear
12:55 AM 36.3 °F 32.5 °F 28.2 °F 72% 30.15 in 10.0 mi SE 4.6 mph - N/A   Clear
1:15 AM 35.8 °F 33.0 °F 28.0 °F 73% 30.15 in 10.0 mi SE 3.5 mph - N/A   Clear
1:35 AM 34.9 °F 30.8 °F 27.9 °F 76% 30.13 in 10.0 mi SSE 4.6 mph - N/A   Clear
1:55 AM 34.7 °F 30.6 °F 27.9 °F 76% 30.13 in 10.0 mi SE 4.6 mph - N/A   Clear
2:15 AM 33.8 °F 29.6 °F 27.9 °F 79% 30.12 in 10.0 mi ESE 4.6 mph - N/A   Clear
2:35 AM 34.0 °F 29.8 °F 28.0 °F 79% 30.12 in 10.0 mi ESE 4.6 mph - N/A   Clear
2:55 AM 34.5 °F 29.4 °F 28.4 °F 78% 30.11 in 10.0 mi ESE 5.8 mph - N/A   Clear
3:15 AM 33.8 °F 27.7 °F 28.8 °F 82% 30.10 in 10.0 mi ESE 6.9 mph - N/A   Clear
3:35 AM 33.8 °F 29.6 °F 28.8 °F 82% 30.10 in 10.0 mi East 4.6 mph - N/A   Clear
3:55 AM 32.7 °F 27.3 °F 28.4 °F 84% 30.09 in 10.0 mi ESE 5.8 mph - N/A   Clear
4:15 AM 32.9 °F 28.5 °F 28.6 °F 84% 30.08 in 10.0 mi ESE 4.6 mph - N/A   Clear
4:35 AM 33.1 °F 26.9 °F 29.1 °F 85% 30.07 in 10.0 mi East 6.9 mph - N/A   Clear
4:55 AM 32.9 °F 26.7 °F 29.1 °F 86% 30.06 in 10.0 mi East 6.9 mph - N/A   Clear
5:15 AM 33.1 °F 26.9 °F 29.3 °F 86% 30.05 in 10.0 mi East 6.9 mph - N/A   Clear
5:35 AM 33.1 °F 28.7 °F 29.3 °F 86% 30.04 in 10.0 mi East 4.6 mph - N/A   Clear
6:55 AM 32.0 °F 28.7 °F 28.4 °F 87% 30.03 in 10.0 mi East 3.5 mph - N/A   Clear
7:55 AM 32.0 °F 26.4 °F 30.2 °F 93% 30.01 in 10.0 mi East 5.8 mph - N/A   Clear
8:55 AM 37.4 °F 32.8 °F 32.0 °F 81% 30.00 in 10.0 mi ESE 5.8 mph - N/A   Clear
9:55 AM 44.6 °F 39.2 °F 33.8 °F 66% 29.99 in 10.0 mi SSE 10.4 mph - N/A   Clear
10:55 AM 50.0 °F - 37.4 °F 62% 29.97 in 10.0 mi SSE 10.4 mph - N/A   Clear
11:55 AM 55.4 °F - 39.2 °F 54% 29.90 in 10.0 mi South 13.8 mph 17.3 mph N/A   Clear
12:55 PM 59.0 °F - 41.0 °F 51% 29.87 in 10.0 mi South 12.7 mph 21.9 mph N/A   Clear
1:55 PM 62.6 °F - 42.8 °F 48% 29.85 in 10.0 mi South 10.4 mph - N/A   Clear
2:55 PM 66.2 °F - 41.0 °F 40% 29.84 in 10.0 mi WSW 13.8 mph 17.3 mph N/A   Clear
3:55 PM 66.2 °F - 41.0 °F 40% 29.86 in 10.0 mi WNW 11.5 mph - N/A   Clear
4:55 PM 60.8 °F - 41.0 °F 48% 29.90 in 10.0 mi WNW 8.1 mph - N/A   Clear
5:55 PM 55.4 °F - 35.6 °F 47% 29.95 in 10.0 mi NNW 17.3 mph 23.0 mph N/A   Clear
6:55 PM 42.8 °F 32.9 °F 32.0 °F 66% 30.03 in 10.0 mi NNW 26.5 mph 34.5 mph N/A   Clear
7:55 PM 37.4 °F 27.5 °F 30.2 °F 75% 30.09 in 10.0 mi NNW 18.4 mph 33.4 mph N/A   Clear
8:55 PM 33.8 °F 20.8 °F 26.6 °F 75% 30.14 in 10.0 mi NNW 26.5 mph 32.2 mph N/A   Clear
9:55 PM 30.2 °F 19.3 °F 26.6 °F 86% 30.19 in 10.0 mi North 15.0 mph 29.9 mph N/A   Clear
10:35 PM 29.7 °F 17.1 °F 22.1 °F 73% 30.19 in 10.0 mi North 19.6 mph 23.0 mph N/A   Clear
10:55 PM 29.1 °F 16.7 °F 21.7 °F 74% 30.22 in 10.0 mi NNW 18.4 mph 25.3 mph N/A   Clear
11:15 PM 28.2 °F 15.9 °F 20.8 °F 74% 30.23 in 10.0 mi NNW 17.3 mph 28.8 mph N/A   Clear
11:35 PM 27.3 °F 15.2 °F 20.3 °F 75% 30.25 in 10.0 mi NNW 16.1 mph 21.9 mph N/A   Clear
11:55 PM 26.4 °F 14.0 °F 19.8 °F 76% 30.27 in 10.0 mi NNW 16.1 mph - N/A   Clear